Location: Caltech
(34.1382°N, 118.1253°W)
Time: 00:21:34
(UTC-07:00)

Cosmos 2333 Rocket - Visible Passes

Search period start: 26 May 2017 00:00
Search period end: 05 June 2017 00:00
Orbit: 837 x 864 km, 70.8° (Epoch: 25 May)

Date Brightness Start Highest point End Pass type
(mag) Time Alt. Az. Time Alt. Az. Time Alt. Az.
26 May 4.0 01:44:19 10° N 01:48:58 25° ENE 01:50:57 21° E visible
26 May 2.7 03:28:04 10° NW 03:32:53 38° W 03:32:53 38° W visible
27 May 4.0 01:32:01 10° N 01:36:40 25° ENE 01:38:02 23° E visible
27 May 2.9 03:15:44 10° NW 03:19:59 36° W 03:19:59 36° W visible
28 May 3.9 01:19:41 10° N 01:24:20 25° ENE 01:25:16 24° ENE visible
28 May 3.1 03:03:25 10° NW 03:07:13 33° WNW 03:07:13 33° WNW visible
29 May 3.9 01:07:22 10° N 01:12:00 25° ENE 01:12:36 25° ENE visible
29 May 3.3 02:51:06 10° NW 02:54:33 31° WNW 02:54:33 31° WNW visible
30 May 3.9 00:55:03 10° N 00:59:41 25° ENE 01:00:01 25° ENE visible
30 May 3.4 02:38:46 10° NW 02:41:58 29° WNW 02:41:58 29° WNW visible
31 May 3.9 00:42:43 10° N 00:47:21 25° ENE 00:47:30 25° ENE visible
31 May 3.5 02:26:26 10° NW 02:29:28 28° WNW 02:29:28 28° WNW visible
01 Jun 3.9 00:30:24 10° N 00:35:01 25° ENE 00:35:02 25° ENE visible
01 Jun 3.6 02:14:07 10° NW 02:17:01 27° WNW 02:17:01 27° WNW visible
02 Jun 3.8 00:18:04 10° N 00:22:39 25° ENE 00:22:39 25° ENE visible
02 Jun 3.7 02:01:47 10° NW 02:04:37 26° WNW 02:04:37 26° WNW visible
03 Jun 3.8 00:05:46 10° N 00:10:18 25° ENE 00:10:18 25° ENE visible
03 Jun 3.7 01:49:28 10° NW 01:52:17 26° WNW 01:52:17 26° WNW visible
03 Jun 3.8 23:53:26 10° N 23:57:59 25° ENE 23:57:59 25° ENE visible
04 Jun 3.7 01:37:08 10° NW 01:39:58 26° WNW 01:39:58 26° WNW visible
04 Jun 3.8 23:41:07 10° N 23:45:42 25° ENE 23:45:42 25° ENE visible
